Regional Weather Roundup
Issued by NWS

Home | Current Version | Previous Version | Graphics & Text | Print | Product List | Glossary On
Versions: 1 2 3 4 5 6 7 8 9 10 11 12 13 14 15 16 17 18 19 20 21 22 23 24 25 26 27 28 29 30 31 32 33 34 35 36 37 38 39 40 41 42 43 44 45 46 47 48 49 50
000
ASUS43 KMPX 290010
RWRMN
WEATHER ROUNDUP FOR MINNESOTA
NATIONAL WEATHER SERVICE TWIN CITIES/CHANHASSEN MN
700 PM CDT FRI AUG 28 2015


NOTE: "FAIR" INDICATES FEW OR NO CLOUDS BELOW 12,000 FEET WITH NO
SIGNIFICANT WEATHER AND/OR OBSTRUCTIONS TO VISIBILITY. N/A MEANS
CURRENT SKY AND/OR WEATHER CONDITIONS ARE NOT AVAILABLE.

MNZ060>063-068>070-290100-
   Twin Cities Metro

CITY           SKY/WX    TMP DP  RH WIND       PRES   REMARKS
TWIN CITIES    MOCLDY    68  58  70 SE12      29.99S
6HR MIN TEMP:  68; 6HR MAX TEMP:  76;

ST PAUL        PTCLDY    67  59  75 S15       30.00R
CRYSTAL        MOCLDY    72  60  66 S10       29.98S
LAKEVILLE      CLEAR     64  57  77 SE7       30.00S
EDEN PRAIRIE   CLEAR     69  57  65 S12       29.99S
6HR MIN TEMP:  69; 6HR MAX TEMP:  78;

SOUTH ST PAUL  CLEAR     67  58  71 SE8G16    30.00S
LAKE ELMO      MOCLDY    68  61  77 S13       30.02R
$$
MNZ001>005-007-008-013>017-022>024-027-028-290100-
   Northwest Minnesota

CITY           SKY/WX    TMP DP  RH WIND       PRES   REMARKS
BEMIDJI        SUNNY     75  64  69 SW10G16   29.90S
HALLOCK        MOSUNNY   81  70  69 N7        29.80S
ROSEAU         MOSUNNY   79  70  73 SW6       29.83S
WARROAD        PTSUNNY   73  70  88 S5        29.84S
THIEF RVR FALL PTSUNNY  N/A N/A N/A S10G17    29.85S
CROOKSTON      MOSUNNY   79  66  65 SW17      29.86R
FOSSTON        MOSUNNY   75  64  69 S17       29.89S
DETROIT LAKES  SUNNY     75  64  69 S12       29.93S
MOORHEAD       SUNNY     79  66  65 S12       29.89S
PARK RAPIDS    MOSUNNY   77  63  61 SW10      29.93R
MAHNOMEN       FAIR      75  66  72 S14       29.90S
$$
MNZ006-009>011-018-025>026-290100-
   North Central Minnesota

CITY           SKY/WX    TMP DP  RH WIND       PRES   REMARKS
BAUDETTE       PTSUNNY   78  67  68 SW9       29.84S
FLAG ISLAND    PTSUNNY   72  66  83 CALM      29.83S
INTL FALLS     MOCLDY    76  67  73 VRB6      29.84F
6HR MIN TEMP:  69; 6HR MAX TEMP:  81; 6HR PCP:  0.02;

WASKISH        CLOUDY    73  66  78 SW7       29.88R
BIG FORK       PTCLDY    75  64  69 SW9       29.90S
LONGVILLE      MOSUNNY   75  64  69 S5        29.94S
GRAND RAPIDS     N/A     75  63  64 S9        29.94S
CRANE LAKE     PTCLDY    72  68  88 S1        29.88F
ORR            MOCLDY    73  64  73 S6        29.86F
COOK           PTCLDY    75  64  69 S5        29.91S
WALKER         FAIR      74  63  68 SW6       29.92S
$$
MNZ012-019>021-037-290100-
   Northeast Minnesota

CITY           SKY/WX    TMP DP  RH WIND       PRES   REMARKS
DULUTH         PTCLDY    74  62  66 SW12      29.95R
6HR MIN TEMP:  74; 6HR MAX TEMP:  79;

ELY            MOCLDY    73  64  73 SW7       29.92R
HIBBING        PTCLDY    75  64  68 SW7       29.93S
EVELETH        PTCLDY    72  61  68 SW9G16    29.94S
DULUTH HARBOR  PTCLDY    77  63  61 SW15      29.93R
TWO HARBORS    PTCLDY    79  66  65 SW8       29.92R
SILVER BAY     PTCLDY    75  64  69 S10       29.91R
GRAND MARAIS     N/A     56  53  90 CALM      29.90F
G MARAIS ARPRT PTCLDY    66  61  82 SW5       29.96S
$$
MNZ029>031-032-039>041-046>048-054>057-064-290100-
   West Central Minnesota

CITY           SKY/WX    TMP DP  RH WIND       PRES   REMARKS
FERGUS FALLS   SUNNY     75  64  69 S12       29.92F
WHEATON        SUNNY     72  63  73 SE8       29.95S
MORRIS         SUNNY     73  64  73 S8        29.96R
ALEXANDRIA     MOSUNNY   73  62  68 S10       29.99R
ELBOW LAKE     FAIR      73  65  75 S10       29.95S
WADENA         SUNNY     73  63  68 S7        29.95R
GLENWOOD       SUNNY     72  63  73 S13       29.98F
APPLETON       SUNNY     73  63  68 S6        29.96S
BENSON         SUNNY     72  61  68 S7        29.97S
ORTONVILLE     SUNNY     73  63  68 S8        29.96S
MADISON        SUNNY     70  63  78 SE6       29.97S
WILLMAR        FAIR      70  63  78 SE5       30.00S
$$
MNZ033>034-036-042>043-049>051-058-059-290100-
   Central Minnesota

CITY           SKY/WX    TMP DP  RH WIND       PRES   REMARKS
ST CLOUD       CLEAR     70  62  76 S9        29.98R
6HR MIN TEMP:  70; 6HR MAX TEMP:  80;

SAUK CENTRE    FAIR      71  62  73 S9        29.98S
PAYNESVILLE    SUNNY     69  60  73 SE6       29.99S
AITKIN         PTCLDY    75  64  69 S6        29.95R
PINE RIVER     SUNNY     75  64  69 S7        29.98S
BRAINERD       CLOUDY    75  63  66 S8        29.96R
STAPLES        SUNNY     73  63  68 S8        29.96S
LONG PRAIRIE   FAIR      70  63  78 S10G17    29.97S
LITTLE FALLS   SUNNY     72  61  68 SW9       29.98R
LITCHFIELD     SUNNY     70  63  78 SE6       29.99F
BUFFALO        CLEAR     70  59  67 S7        30.00R
MAPLE LAKE     CLEAR     70  64  80 S3        30.00S
$$
MNZ037-044-045-052-053-290100-
   East Central Minnesota

CITY           SKY/WX    TMP DP  RH WIND       PRES   REMARKS
PRINCETON      PTCLDY    73  61  64 S8        29.98R
MORA           CLEAR     70  59  68 S8        29.99R
CAMBRIDGE      CLEAR     73  61  64 S9        29.96S
RUSH CITY      CLEAR     71  60  69 S10       29.98S
MOOSE LAKE     PTCLDY    72  61  68 S5        29.95R
HINCKLEY       FAIR      72  63  73 SW6       29.97R
CLOQUET        PTCLDY    73  61  64 S8G17     29.96R
MCGREGOR       PTCLDY    73  63  68 SW9       29.97R
$$
MNZ071>073-080-081-089-090-097-098-290100-
   Southwest Minnesota

CITY           SKY/WX    TMP DP  RH WIND       PRES   REMARKS
MONTEVIDEO     SUNNY     72  63  73 S5        30.00S
GRANITE FALLS  SUNNY     69  60  74 SE9       30.00R
CANBY          SUNNY     70  62  76 SE7       29.99S
MARSHALL       MOSUNNY   68  57  68 SE6       30.01R
REDWOOD FALLS  MOSUNNY   68  60  75 SE8       29.98S
OLIVIA         SUNNY     68  59  73 SE6       29.99S
PIPESTONE      CLOUDY    64  59  82 E8        30.00R
WINDOM         CLOUDY    64  55  72 E9        29.99R
WORTHINGTON    CLOUDY    63  55  77 E12       29.98R
JACKSON        CLOUDY    63  57  82 E14       29.98S
TRACY          CLOUDY    67  60  78 SE6       29.99S
SLAYTON        CLOUDY    64  59  83 CALM      30.01R
$$
MNZ065>067-074>077-082>085-091>093-290100-
   South Central Minnesota

CITY           SKY/WX    TMP DP  RH WIND       PRES   REMARKS
MANKATO        PTCLDY    64  55  72 E10       29.99S
NEW ULM        MOSUNNY   66  57  72 E8        29.99R
ST JAMES       MOSUNNY   64  57  77 E10       30.00R
FAIRMONT       CLOUDY    63  54  72 E14       29.96F
GLENCOE        CLEAR     69  60  72 SE6       30.00R
FARIBAULT      CLEAR     64  57  77 E13       30.01S
OWATONNA       PTCLDY    63  55  77 E10       30.00F
WASECA         PTCLDY    63  55  77 MISG      30.00F
ALBERT LEA     CLOUDY    61  57  88 E10G16    29.99S
$$
MNZ078>079-086>088-094>096-290100-
   Southeast Minnesota

CITY           SKY/WX    TMP DP  RH WIND       PRES   REMARKS
ROCHESTER      CLOUDY    58  57  97 SE12      30.02F
6HR MIN TEMP:  58; 6HR MAX TEMP:  62; 6HR PCP:  0.34;

RED WING       PTCLDY    64  57  77 SE9       30.01F
STANTON        CLEAR     65  56  71 SE8G17    29.99F
DODGE CENTER   CLOUDY    61  55  82 E9        30.02S
WINONA         CLOUDY    61  57  88 SE7       30.05S
AUSTIN         CLOUDY    61  55  82 E15G23    29.99F
PRESTON        CLOUDY    58  55  90 E12G20    30.03S
$$
ABBREVIATIONS USED IN REMARKS
   TC - TEMPERATURES IN CELSIUS
  WCI - WIND CHILL INDEX
   HX - HEAT INDEX
  VSB - VISIBILITY
$$


USA.gov is the U.S. government's official web portal to all federal, state and local government web resources and services.